Tracking 28081 objects as of 27-Sep-2023
HD Live streaming from Space Station
objects crossing your sky now

PROBA 1

Track PROBA 1 now!
10-day predictions
PROBA 1 is classified as:


NORAD ID: 26958
Int'l Code: 2001-049B
Perigee: 530.1 km
Apogee: 624.3 km
Inclination: 97.9 °
Period: 96.1 minutes
Semi major axis: 6948 km
RCS: Unknown
Launch date: October 22, 2001
Source: European Space Agency (ESA)
Launch site: SRIHARIKOTA (SRI)

First a technology demonstration, then extended for one year for remote sensing; looks like a washing machine.
Your satellite tracking list
Your tracking list is empty




NASA's NSSDC Master Catalog

Two Line Element Set (TLE):
1 26958U 01049B   23269.90337533  .00003717  00000-0  29792-3 0  9999
2 26958  97.8825 237.2895 0067807 226.2504 133.3094 14.98970117194213
Source of the keplerian elements: AFSPC